闪电 1-71星 (MOLNIYA 1-71)

导读 | 星芒AI

MOLNIYA 1-71 是一颗俄罗斯军用通信卫星,于2000年12月20日由质子-K火箭发射。该卫星运行在高椭圆轨道上,主要用于支持俄罗斯的军事通信系统。MOLNIYA 系列卫星以其特殊的轨道设计著称,使其在高纬度地区具有较长的可见时间,特别适合俄罗斯广阔的领土通信需求。MOLNIYA 1-71 在轨运行多年,为俄罗斯的国家安全和战略通信提供了重要支持。

基本信息
目录编号:
18946
目录名称:
MOLNIYA 1-71
国际标识:
1988-017A
轨道中心:
EARTH
卫星名称:
闪电 1-71星
卫星全名:
闪电 1-71星 (MOLNIYA 1-71)
卫星状态:
在轨 (已飞行13793 天)
发射日期:
1988-03-11 UTC
国别 :
俄罗斯(独联体) (CIS)
星等 :
--
轨道信息
数据来源 国际轨道数据
星历时间: 2025-12-13T07:29:48+0800
2天前
查看轨道信息
半长轴: 26572.919km
偏心率: 0.7397687
轨道倾角: 62.054°
近地点辐角 265.277°
升交点赤经 285.542°
平近点角 15.396°
近地点: 536.97km
远地点: 39852.598km
周期: 718.487分钟
每日圈数: 2.004213
详细信息
平衡模式:
三轴稳定
覆盖范围:
全球
运营商:
俄罗斯国家航天集团
运营商所在国:
俄罗斯
制造商(研发单位):
普里克拉德诺伊·梅哈尼基设计局
制造商所在国:
俄罗斯联邦
使用方式:
暂无
卫星简介
闪电(Molniya (Satellite))系列卫星是苏联/俄罗斯于1965年至2004年间发射的军事和通信卫星。这些卫星使用高度偏心的椭圆轨道,称为Molniya轨道(即闪电轨道),在高纬度地区具有较长的停留时间。该卫星状态未知。
2D轨道图
3D轨道图
轨道高度分析图
轨道倾角分析图
轨道综合分析图
查看轨道综合分析图